Hourly Data Report for January 03, 2002

SHERBROOKE A
QUEBEC

45°26'00.000" N
71°41'00.000" W
241.40 m
7028124
71610
YSC

Download Data

Hourly Data (January 2002)
Hourly Data Report for January 3, 2002
TIME
LST
Temp Definition
°C
Dew Point Definition
°C
Rel Hum Definition
%
Precip. Amount Definition
mm

Wind Dir Definition
10's deg

Wind Spd Definition
km/h
Visibility Definition
km
Stn Press Definition
kPa
Hmdx Definition


Wind Chill Definition


Weather Definition


00:00 -5.0 -10.2 67   27 19 15.0 98.30   -11 Snow
01:00 -5.1 -10.1 68   25 11 12.9 98.27   -10 Snow
02:00 -5.4 -8.8 77   21 9 8.0 98.24   -9 Snow
03:00 -5.1 -7.5 83   24 13 2.4 98.20   -10 Snow
04:00 -4.9 -7.1 85   23 9 12.9 98.15   -9 Snow
05:00 -4.3 -6.5 85   25 17 9.7 98.10   -10 Snow
06:00 -3.8 -6.8 80   25 20 15.0 98.09   -10 Snow
07:00 -3.6 -6.5 80   26 20 5.6 98.07   -10 Snow
08:00 -3.7 -6.5 81   25 19 4.8 98.09   -10 Snow Showers
09:00 -3.4 -6.9 77   25 22 19.3 98.11   -10 Snow Showers
10:00 -3.3 -6.4 79   25 20 2.0 98.08   -9 Snow Showers
11:00 -3.3 -6.6 78   27 33 16.1 98.01   -11 Snow Showers
12:00 -3.2 -7.6 72   26 19 19.3 97.94   -9 Snow Showers
13:00 -2.8 -8.7 64   26 30 19.3 97.86   -10 Mostly Cloudy
14:00 -2.3 -7.6 67   27 22 24.1 97.81   -8 Snow Showers
15:00 -3.4 -9.1 65   25 30 24.1 97.82   -11 Mainly Clear
16:00 -4.3 -10.3 63   25 28 24.1 97.84   -12 Mainly Clear
17:00 -5.0 -10.5 65   26 22 24.1 97.90   -12 Clear
18:00 -5.4 -10.3 68   25 20 15.0 97.92   -12  
19:00 -6.2 -11.0 69   26 15 15.0 97.94   -12  
20:00 -7.0 -11.8 69   26 11 15.0 97.95   -12  
21:00 -7.4 -12.3 68   25 17 15.0 97.96   -14  
22:00 -8.0 -13.0 67   25 15 15.0 97.98   -14  
23:00 -8.2 -16.0 53   30 20 15.0 98.03   -16  

Notes on Data Quality.

Legend

  • E = Estimated
  • M = Missing
  • NA = Not Available*
  • [empty] = Indicates an unobserved value
Date modified: